User: anonymous   Login
Location: Unspecified
(0.0000°N, 0.0000°E)
Time: 06:51:05
(UTC+02:00)
Language:

Cosmos 2219 - Orbit

View from above orbital plane
View from above orbital plane
View from above satellite
View from above satellite

Ground track
Ground track

The orbit data is extracted from the following two-line orbital elements,

1 22219U 92076A   16209.18781534  .00000184  00000-0  12227-3 0  9995
2 22219  71.0588 156.5814 0018184 170.6180 189.5286 14.13586657222283
Epoch (UTC): 27 July 2016 04:30:27
Eccentricity: 0.0018184
inclination: 71.0588°
perigee height: 834 km
apogee height: 860 km
right ascension of ascending node: 156.5814°
argument of perigee: 170.6180°
revolutions per day: 14.13586657
mean anomaly at epoch: 189.5286°
orbit number at epoch: 22228

The dashed part of the orbit path shows where the satellite is in the earth's shadow,  

DLR